TIME,DELAY(SENSOR),PRES,OXYGEN,RAWTEMP,T(OPTODE),TCPHASE,FLUOR,BETA(BETA700),BETA(BETA412),BETA(BETA440),CDOM,C(CSC),ED(ED412.20),ED(ED444.00),ED(ED489.60),ED(ED554.30),LU(LU412.10),LU(LU443.90),LU(LU489.70),LU(LU554.70),COMP,TILTX,TILTY,CHECK
1373083446,5810,857.4299926757812000,28.7666702270507800,561.8848876953125000,4.4274649620056150,57.3267402648925800,55,99,100,78,82,15632,0,0,0,0,2147121033,2147767625,2147566372,2147569142,1816,2,13,24869
1373087023,5810,924.5900268554688000,33.4334106445312500,569.2686157226562000,4.1982860565185550,56.6263389587402340,55,97,99,78,80,15629,0,0,0,0,2147123254,2147770953,2147567241,2147568356,729,2,13,63406
1373090623,5811,933.0200195312500000,31.1483306884765620,570.6312255859375000,4.1559429168701170,57.0066604614257800,55,98,100,78,81,15630,0,0,0,0,2147122285,2147770349,2147569481,2147572187,312,2,13,46118
1373094223,5809,959.4099731445312000,32.5948486328125000,573.6683959960938000,4.0615057945251465,56.8042984008789060,56,97,99,76,82,15631,0,0,0,0,2147122843,2147768676,2147568000,2147567515,742,2,13,31332
1373097823,5809,965.5599975585938000,33.7084808349609400,574.0140991210938000,4.0507531166076660,56.6288681030273440,55,98,98,78,81,15630,0,0,0,0,2147117897,2147770322,2147570240,2147570294,3181,2,13,17810
1373101423,5809,970.3800048828125000,32.6429595947265600,573.9813232421875000,4.0517730712890625,56.7975502014160160,54,99,100,76,81,15629,0,0,0,0,2147123090,2147770075,2147570139,2147569069,3516,2,13,55929
1373105023,5812,975.6199951171875000,33.5458602905273440,573.8574829101562000,4.0556221008300780,56.6484298706054700,55,100,99,78,81,15627,0,0,0,0,2147122825,2147768420,2147567817,2147566646,173,2,13,30617
1373108623,5808,975.6900024414062000,32.2097206115722660,574.0355224609375000,4.0500869750976560,56.8635292053222660,55,95,99,77,80,15629,0,0,0,0,2147118454,2147768466,2147565558,2147564598,170,2,13,49603
1373112223,5811,977.9899902343750000,33.2703018188476560,574.1508789062500000,4.0464968681335450,56.6968193054199200,54,98,101,78,81,15624,0,0,0,0,2147120868,2147768950,2147567424,2147567204,366,2,13,58094
1373115823,5811,972.3099975585938000,29.6814403533935550,574.6572265625000000,4.0307450294494630,57.2921218872070300,54,99,99,77,80,15625,0,0,0,0,2147120804,2147771456,2147567707,2147566454,151,2,13,22818
1373119423,5809,970.0800170898438000,31.3791904449462900,575.2517089843750000,4.0122451782226560,57.0113296508789060,56,97,99,78,82,15623,0,0,0,0,2147125494,2147771611,2147572452,2147566747,3525,2,13,54515
1373123023,5808,979.6400146484375000,28.9145507812500000,574.6254882812500000,4.0317311286926270,57.4141998291015600,56,96,99,78,81,15619,0,0,0,0,2147121307,2147769325,2147569682,2147563739,267,2,13,1592
1373126623,5809,981.1400146484375000,32.3306388854980500,574.5001831054688000,4.0356268882751465,56.8516311645507800,55,97,99,78,82,15620,0,0,0,0,2147121883,2147772818,2147570112,2147568548,357,2,13,15268
1373130223,5808,977.3400268554688000,32.6064987182617200,574.3334960937500000,4.0408148765563965,56.8061485290527340,54,102,100,78,80,15621,0,0,0,0,2147117970,2147771620,2147566244,2147565741,3559,2,13,4581
1373133823,5811,977.9299926757812000,24.7535705566406250,574.3056030273438000,4.0416831970214840,58.1327514648437500,55,100,99,78,81,15620,0,0,0,0,2147122450,2147767204,2147568566,2147564196,88,2,13,16556
1373137423,5808,980.2600097656250000,32.8398094177246100,574.3472900390625000,4.0403861999511720,56.7712898254394500,55,98,101,77,82,15620,0,0,0,0,2147121965,2147769828,2147571483,2147569453,3519,2,13,14551
1373141023,5754,982.8300170898438000,35.1019401550293000,574.3881225585938000,4.0391159057617190,56.4123191833496100,55,96,99,77,82,15621,0,0,0,0,2147124260,2147769590,2147568996,2147567954,3310,2,13,24435
1373144623,5812,980.5900268554688000,27.6806907653808600,574.3601074218750000,4.0399880409240720,57.6209106445312500,56,99,100,78,81,15620,0,0,0,0,2147120411,2147767625,2147576685,2147570358,3559,3,13,60375
1373148223,5809,984.0800170898438000,36.3289489746093750,575.1649780273438000,4.0149421691894530,56.2225112915039060,55,106,99,77,82,15621,0,0,0,0,2147124242,2147772717,2147574464,2147568649,119,2,13,12938
1373151823,5806,984.7899780273438000,35.2518615722656250,575.2232055664062000,4.0131301879882810,56.3974304199218750,55,98,99,77,80,15619,0,0,0,0,2147119030,2147770614,2147571309,2147568457,359,3,13,6575
1373155423,5808,981.8400268554688000,26.3809604644775400,575.5736083984375000,4.0022258758544920,57.8566818237304700,55,99,100,77,81,15614,0,0,0,0,2147123026,2147769956,2147571840,2147565906,85,3,13,64202
1373159023,5808,980.5999755859375000,25.3071308135986330,575.7753295898438000,3.9959468841552734,58.0484580993652340,55,95,99,77,81,15616,0,0,0,0,2147123245,2147768566,2147570038,2147565110,213,2,13,49694
1373162623,5811,990.9699707031250000,34.4922790527343750,573.9699707031250000,4.0521240234375000,56.5045509338378900,54,97,100,77,81,15617,0,0,0,0,2147120923,2147768466,2147570587,2147568210,3125,2,13,22430
1373166223,5810,990.8900146484375000,33.6643714904785160,573.8883056640625000,4.0546650886535645,56.6334495544433600,54,105,100,76,82,15617,0,0,0,0,2147120685,2147772699,2147565778,2147567680,3242,2,13,32391
1373169823,5808,983.0800170898438000,28.1286506652832030,574.1115722656250000,4.0477199554443360,57.5419006347656250,53,98,98,78,81,15618,0,0,0,0,2147119835,2147769965,2147565458,2147566098,3391,2,13,11910
1373173423,5810,986.6699829101562000,30.6676807403564450,573.9260253906250000,4.0534930229187010,57.1170883178710940,55,98,100,77,81,15618,0,0,0,0,2147122797,2147768694,2147568996,2147564169,574,2,13,3015
1373177023,5811,985.7500000000000000,34.5267982482910160,575.2202758789062000,4.0132198333740230,56.5137290954589840,54,98,100,77,82,15615,0,0,0,0,2147120713,2147769088,2147572059,2147565366,3415,2,13,18617
1373180623,5810,989.3099975585938000,28.5734291076660160,574.0512695312500000,4.0495948791503910,57.4638710021972660,54,116,99,78,81,15615,0,0,0,0,2147119442,2147771026,2147568932,2147563949,3441,2,13,11597
1373184223,5809,981.8499755859375000,32.7353096008300800,576.0341186523438000,3.9878940582275390,56.8052406311035160,54,97,101,79,81,15618,0,0,0,0,2147121389,2147765540,2147573558,2147564050,3273,2,13,6859
1373187823,5809,981.6099853515625000,33.3078918457031250,576.5098876953125000,3.9730799198150635,56.7170486450195300,56,97,99,78,81,15616,0,0,0,0,2147121078,2147764361,2147569901,2147565952,3392,3,13,64253
1373191423,5810,983.6599731445312000,33.1255607604980500,575.6085205078125000,4.0011391639709470,56.7390708923339840,55,113,98,77,82,15616,0,0,0,0,2147119369,2147769042,2147570578,2147570861,3323,2,13,47153
1373195023,5808,988.2999877929688000,32.2197494506835940,575.4686279296875000,4.0054931640625000,56.8775405883789060,55,97,100,78,81,15617,0,0,0,0,2147122916,2147764992,2147570642,2147565750,109,3,13,53508
1373198623,5812,990.3800048828125000,33.9952392578125000,574.6210937500000000,4.0318660736083980,56.5910911560058600,56,96,99,78,81,15615,0,0,0,0,2147117476,2147766619,2147571693,2147567003,3446,2,13,30683
1373202223,5810,990.6199951171875000,31.0000591278076170,574.6129760742188000,4.0321178436279300,57.0661582946777340,55,99,99,78,82,15614,0,0,0,0,2147122770,2147770688,2147574208,2147567040,73,3,13,48760
1373205823,5807,983.2800292968750000,33.6606903076171900,575.4302978515625000,4.0066847801208500,56.6434898376464840,55,97,100,78,81,15616,0,0,0,0,2147122870,2147770989,2147568457,2147567094,149,2,13,9974
1373209423,5810,985.2899780273438000,24.5589599609375000,575.5288696289062000,4.0036158561706540,58.1721382141113300,55,95,99,77,82,15615,0,0,0,0,2147121234,2147770651,2147569920,2147568658,60,3,13,13098
1373213023,5806,987.7299804687500000,34.3511314392089840,574.9713134765625000,4.0209689140319820,56.5360298156738300,55,98,99,78,81,15615,0,0,0,0,2147121728,2147770176,2147567442,2147565622,3590,2,13,38915
1373216623,5809,986.8400268554688000,32.6938018798828100,575.0294799804688000,4.0191569328308105,56.8020095825195300,55,97,99,78,81,15610,0,0,0,0,2147122148,2147767414,2147570432,2147565421,308,2,13,24059
1373220223,5811,986.6500244140625000,32.2449188232421900,575.5567016601562000,4.0027518272399900,56.8730392456054700,55,99,100,78,81,15613,0,0,0,0,2147120338,2147773467,2147568329,2147568393,3569,2,13,36402
1373223823,5810,986.3800048828125000,31.4785804748535160,575.3833007812500000,4.0081481933593750,56.9979782104492200,55,98,100,78,80,15612,0,0,0,0,2147120969,2147768594,2147569362,2147566500,422,2,13,58100
1373227257,5809,991.5599975585938000,36.0457000732421900,575.3695068359375000,4.0085768699646000,56.2724113464355500,54,97,99,78,82,15613,0,0,0,0,2147122733,2147772909,2147569910,2147566692,251,2,13,39568
